Погода в Карабихе

Россия / Ярославская область     57°30′25″N   39°45′53″E
темп.,
°C
ветер,
м/с
пор.,
м/с
влажн.,
%
обл.,
%
осадки,
мм/ч
давл.,
гПа
погр.,
м
13 мая, чт
чт1300:00+14св3492100 0.3 102181
03:00+13вюв35935 0.3 102193
06:00+13юв379211 0.0 1021242
09:00+17юв477981 0.0 1021869
12:00+18юв4773100 0.2 10201316
15:00+21ююв4657100 0.4 10161530
18:00+14ю3697100 28.5 1014445
21:00+13юв249780 38.4 101579
14 мая, пт
пт1400:00+11ю389769 0.4 1016179
03:00+10ююз3594100 0.4 1017105
06:00+11ю2691100 0.0 1018201
09:00+15ю468070 0.0 1018500
12:00+18ю5769100 0.1 10171345
15:00+20ю576323 0.3 10161493
18:00+18ююв378392 1.7 1015320
21:00+15ююв119091 3.2 101411
15 мая, сб
сб1500:00+14вюв279887 9.2 1013240
03:00+14вюв499686 10.1 1012206
06:00+15ю51493100 0.1 1012430
09:00+19ююв51179100 0.4 1011543
12:00+22ю6968100 0.0 10101228
15:00+20ю61177100 1.0 1009771
18:00+18ю6128349 1.3 1008749
21:00+15ю4119433 2.5 1009291
16 мая, вс
вс1600:00+14ю410956 0.4 1009236
03:00+12ю389589 0.4 1010152
06:00+13ююз4109232 0.0 1010288
09:00+17ююз610745 0.0 1010899
12:00+19ююз686467 0.2 10101631
15:00+18юз79707 2.4 10111401
18:00+17зюз59775 0.5 1011883
21:00+13зюз39934 0.5 1013225
17 мая, пн
пн1700:00+12зюз36969 0.0 1014118
03:00+11з349567 0.0 101684
06:00+12зсз239172 0.0 1017129
09:00+17сз117499 0.0 1017528
12:00+20всв226469 0.0 10171014
15:00+21в336095 0.0 10171213
18:00+20в367012 0.0 1016432
21:00+16в49855 0.0 1016141